Погода в Гарях

Россия / Ивановская область     56°55′23″N   39°41′12″E
темп.,
°C
ветер,
м/с
пор.,
м/с
влажн.,
%
обл.,
%
осадки,
мм/ч
давл.,
гПа
погр.,
м
12 августа, пт
пт1200:00+14з117098 0.0 102511
03:00+13зюз227518 0.0 102520
06:00+14з3474100 0.0 102574
09:00+20з3453100 0.0 1025448
12:00+24з4543100 0.0 10241208
15:00+25з5638100 0.0 10231527
18:00+24зсз46435 0.0 1022658
21:00+18з33666 0.0 102343
13 августа, сб
сб1300:00+16з3373100 0.0 102339
03:00+15зсз2279100 0.0 102319
06:00+16зсз117958 0.0 102317
09:00+22зсз1156100 0.0 1023415
12:00+25з2246100 0.0 10221326
15:00+26з2242100 0.0 10211696
18:00+24з2352100 0.0 102172
21:00+19зсз3366100 0.0 102133
14 августа, вс
вс1400:00+17сз2276100 0.0 102111
03:00+16зсз118371 0.0 102111
06:00+17с117933 0.0 102111
09:00+23юв015531 0.0 1021459
12:00+27юв114360 0.0 10201661
15:00+28ю22377 0.0 10202195
18:00+27ю124223 0.0 1019401
21:00+21ююв235961 0.0 102046
15 августа, пн
пн1500:00+20ю226174 0.0 102037
03:00+17ююв22710 0.0 102111
06:00+18ююв22720 0.0 102118
09:00+25юв23505 0.0 1021446
12:00+29юв34355 0.0 10212329
15:00+30вюв433115 0.0 10202497
18:00+28вюв353639 0.0 1020489
21:00+23вюв495367 0.0 1021197
16 августа, вт
вт1600:00+20юв48637 0.0 1022136
03:00+18юв35715 0.0 102377
06:00+18юв367071 0.0 1023109
09:00+24юв4650100 0.0 1024423
12:00+28юв553691 0.0 10232070
15:00+29вюв5432100 0.0 10222450
18:00+28вюв563912 0.0 10221510
21:00+21вюв411613 0.0 1023224